User: anonymous   Login
Location: Unspecified
(0.0000°N, 0.0000°E)
Time: 15:02:22
(UTC+00:00)
Language:

OBJECT PE - Orbit

View from above orbital plane
View from above orbital plane
View from above satellite
View from above satellite

Ground track
Ground track

The orbit data is extracted from the following two-line orbital elements,

1 43590U 98067PE  20324.88139739  .05711489  12232-4  70418-3 0  9992
2 43590  51.6106 192.2490 0007498 248.1886 111.8341 16.35304962130589
Epoch (UTC): 19 November 2020 21:09:12
Eccentricity: 0.0007498
inclination: 51.6106°
perigee height: 173 km
apogee height: 183 km
right ascension of ascending node: 192.2490°
argument of perigee: 248.1886°
revolutions per day: 16.35304962
mean anomaly at epoch: 111.8341°
orbit number at epoch: 13058

The dashed part of the orbit path shows where the satellite is in the earth's shadow,  

DLR